Epoch 2009 Mar. 30.0 TT = JDT 2454920.5
T 2009 Mar. 10.73705 TT MPCW
q 2.2870722 (2000.0) P Q
n 0.12839223 Peri. 4.41278 +0.97042265 -0.22997646
a 3.8914389 Node 9.85613 +0.20628447 +0.63194964
e 0.4122811 Incl. 25.39945 +0.12540571 +0.74010167
P 7.68
From 216 observations 2008 May 10-2016 July 3, mean residual 1".1.